Station 44007 (LLNR 75) - PORTLAND - 12 NM Southeast of Portland,ME Image indicating link to RSS feed of recent meteorological observations for station 44007

East Hue and Cry Rock Lighted Buoy 1


Conditions at 44007 as of
(1:30 pm EDT)
1730 GMT on 04/20/2024:
     

Click on the graph icon in the table below to see a time series plot of the last five days of that observation.

5-day plot - Wind Direction Wind Direction (WDIR):SSW ( 200 deg true )
5-day plot - Wind Speed Wind Speed (WSPD): 11.7 kts
5-day plot - Wind Gust Wind Gust (GST): 13.6 kts
5-day plot - Atmospheric Pressure Atmospheric Pressure (PRES):29.82 in
5-day plot - Air Temperature Air Temperature (ATMP): 46.2 °F
5-day plot - Water Temperature Water Temperature (WTMP): 46.2 °F
5-day plot - Dew Point Dew Point (DEWP): 44.2 °F
5-day plot - Wind Chill Wind Chill (CHILL): 40.3 °F
5-day plot - Wind Speed at 10 Meters Wind Speed at 10 meters (WSPD10M): 11.7 kts
5-day plot - Wind Speed at 20 Meters Wind Speed at 20 meters (WSPD20M): 13.6 kts
5-day plot -  Wind Speed, Wind Gust and Atmospheric Pressure Combined plot of Wind Speed, Gust, and Air Pressure
Supplemental Measurements
Highest 1-minute Wind Speed
Time (EDT)5-day plot - 1-Minute Wind Speed WSPD 5-day plot - 1-Minute Wind Direction WDIR
1:20 pm 11.7 kts-
Previous observations
TIME
(EDT)
5-day plot - Wind Direction
WDIR
 
5-day plot - Wind Speed
WSPD
kts
5-day plot - Wind Gust
GST
kts
5-day plot - Wave Height
WVHT
ft
5-day plot - Dominant Wave Period
DPD
sec
5-day plot - Average Wave Period
APD
sec
5-day plot - Mean Wave Direction
MWD
 
5-day plot - Atmospheric Pressure
PRES
in
5-day plot - Pressure Tendency
PTDY
in
5-day plot - Air Temperature
ATMP
°F
5-day plot - Water Temperature
WTMP
°F
5-day plot - Dew Point
DEWP
°F
5-day plot - Salinity
SAL
psu
5-day plot - Visibility
VIS
nmi
5-day plot - Tide (above MLLW)
TIDE
ft
2024-04-20 01:20 pmSSW 11.7 13.6 3.0 54.3 SE29.83- 46.2 46.0 44.2---
2024-04-20 01:10 pmSSW 11.7 13.6 3.0-4.3 SE29.83- 46.2 45.9 44.2---
2024-04-20 01:00 pmSSW 11.7 13.6----29.84-0.06 46.0 45.7 44.2---
2024-04-20 12:50 pm SW 11.7 13.6 3.0 54.3SSE29.85- 45.9 45.7 44.1---
2024-04-20 12:40 pm SW 11.7 13.6 3.0-4.3SSE29.85- 45.9 45.7 43.9---
2024-04-20 12:30 pmSSW 11.7 15.5----29.85- 45.9 45.7 43.9---
2024-04-20 12:20 pm S 13.6 17.5 3.0 54.5SSE29.84- 45.9 45.7 44.1---
2024-04-20 12:10 pm S 13.6 17.5----29.84- 45.7 45.7 43.9---
2024-04-20 12:00 pm S 13.6 15.5----29.85-0.04 45.7 45.7 43.9---
2024-04-20 11:50 am S 11.7 13.6 3.0 54.3SSE29.85- 45.7 45.7 43.9---
2024-04-20 11:40 am S 9.7 13.6----29.85- 45.7 45.7 43.9---
2024-04-20 11:30 am S 11.7 13.6----29.85- 45.9 45.7 44.1---
2024-04-20 11:20 amSSW 9.7 11.7 3.0 54.3 S29.87- 45.9 45.7 44.1---
2024-04-20 11:10 amSSW 11.7 13.6 3.0-4.3 S29.88- 45.9 45.9 44.1---
2024-04-20 11:00 am SW 11.7 13.6----29.88-0.04 45.9 45.9 44.1---
2024-04-20 10:50 amSSW 11.7 13.6 3.0 54.3SSE29.88- 45.7 45.9 43.9---
2024-04-20 10:40 amSSW 11.7 15.5----29.88- 45.7 46.0 43.9---
2024-04-20 10:30 amSSW 11.7 15.5----29.88- 45.7 46.0 43.9---
2024-04-20 10:20 amSSW 11.7 15.5 3.3 54.2SSE29.89- 45.5 45.7 43.7---
2024-04-20 10:10 amSSW 13.6 15.5 3.3-4.2SSE29.88- 45.5 45.5 43.7---
2024-04-20 10:00 amSSW 13.6 15.5----29.89-0.04 45.5 45.5 43.7---
2024-04-20 09:50 amSSW 13.6 15.5 3.3 54.2 S29.89- 45.5 45.7 43.7---
2024-04-20 09:40 amSSW 13.6 17.5----29.90- 45.5 45.5 43.7---
2024-04-20 09:30 amSSW 13.6 17.5----29.90- 45.3 45.5 43.5---
2024-04-20 09:20 am SW 15.5 19.4 3.3 44.2 S29.91- 45.3 45.5 43.5---
2024-04-20 09:10 am S 15.5 19.4----29.90- 45.3 45.3 43.5---
2024-04-20 09:00 am S 15.5 17.5----29.88-0.04 45.1 45.3 43.3---
2024-04-20 08:50 am S 11.7 15.5 3.3 54.2 S29.89- 45.1 45.1 43.3---
2024-04-20 08:40 am S 11.7 13.6----29.90- 45.1 45.1 43.2---
2024-04-20 08:30 amSSW 13.6 15.5----29.91- 45.1 45.1 43.2---
2024-04-20 08:20 amSSW 13.6 17.5 3.0 54.2 S29.92- 45.1 45.3 43.2---
2024-04-20 08:10 amSSW 13.6 15.5----29.92- 45.1 45.1 43.0---
2024-04-20 08:00 am SW 13.6 17.5----29.93-0.01 45.1 45.3 43.0---
2024-04-20 07:50 amSSW 9.7 13.6 3.3 54.2 S29.92- 45.0 45.3 42.8---
2024-04-20 07:40 amSSW 9.7 13.6----29.91- 45.0 45.3 42.6---
2024-04-20 07:30 amSSW 11.7 15.5----29.91- 45.0 45.1 42.6---
2024-04-20 07:20 amSSW 13.6 15.5 3.3 54.2SSE29.92- 45.0 45.1 42.6---
2024-04-20 07:10 amSSW 11.7 15.5 3.3-4.2SSE29.92- 45.0 45.1 42.4---
2024-04-20 07:00 amSSW 13.6 17.5----29.93-0.01 45.0 45.1 42.4---
2024-04-20 06:50 amSSW 17.5 19.4 3.6 54.2 S29.94- 45.1 45.5 42.4---
2024-04-20 06:40 amSSW 17.5 21.4 3.6-4.2 S29.94- 45.1 46.2 42.3---
2024-04-20 06:30 amSSW 17.5 19.4----29.93- 45.1 46.0 42.1---
2024-04-20 06:20 amSSW 17.5 19.4 3.6 54.1 S29.93- 45.1 45.9 42.1---
2024-04-20 06:10 am S 15.5 17.5 3.6-4.1 S29.92- 45.3 45.9 42.1---
2024-04-20 06:00 am S 15.5 19.4----29.92-0.04 45.3 45.9 41.9---
2024-04-20 05:50 am S 17.5 19.4 3.3 54.0 S29.93- 45.3 45.9 41.5---
2024-04-20 05:40 am S 17.5 21.4----29.93- 45.5 45.9 41.4---
2024-04-20 05:30 am S 17.5 21.4----29.93- 45.5 45.7 41.4---
2024-04-20 05:20 am S 15.5 19.4 3.3 54.1 S29.93- 45.5 45.7 41.5---
2024-04-20 05:10 am S 15.5 19.4 3.3-4.1 S29.93- 45.5 45.5 41.2---
2024-04-20 05:00 am S 15.5 19.4----29.93-0.05 45.5 45.5 41.0---
2024-04-20 04:50 am S 17.5 21.4 3.6 54.1 S29.93- 45.5 45.5 40.8---
2024-04-20 04:40 am S 17.5 21.4----29.93- 45.7 45.5 40.8---
2024-04-20 04:30 am S 17.5 21.4----29.94- 45.9 45.5 40.6---
2024-04-20 04:20 am S 17.5 21.4 3.3 54.2 S29.95- 46.0 45.7 40.3---
2024-04-20 04:10 am S 17.5 21.4 3.3-4.2 S29.95- 46.0 45.7 40.1---
2024-04-20 04:00 am S 17.5 19.4----29.95-0.06 46.0 45.9 40.5---
2024-04-20 03:50 am S 17.5 21.4 3.6 44.1SSW29.95- 46.0 45.9 40.1---
2024-04-20 03:40 am S 15.5 19.4----29.95- 46.0 45.9 40.1---
2024-04-20 03:30 am S 17.5 19.4----29.96- 46.0 45.9 40.1---
2024-04-20 03:20 am S 17.5 19.4 3.6 44.1 S29.96- 46.2 46.0 39.9---
2024-04-20 03:10 am S 17.5 21.4 3.6-4.1 S29.96- 46.4 46.0 39.7---
2024-04-20 03:00 am S 15.5 19.4----29.96-0.05 46.2 46.0 39.9---
2024-04-20 02:50 am S 17.5 19.4 3.6 54.2 S29.96- 46.4 46.2 39.9---
2024-04-20 02:40 am S 17.5 21.4----29.96- 46.4 46.2 39.4---
2024-04-20 02:30 am S 17.5 21.4----29.97- 46.4 46.0 39.7---
2024-04-20 02:20 am S 17.5 21.4 3.6 54.2SSW29.97- 46.4 46.2 39.9---
2024-04-20 02:10 am S 15.5 21.4 3.6-4.2SSW29.98- 46.2 46.2 39.9---
2024-04-20 02:00 am S 15.5 17.5----29.98-0.03 46.4 46.2 40.3---
2024-04-20 01:50 am S 15.5 19.4 3.6 54.2 S29.99- 46.4 46.2 40.3---
2024-04-20 01:40 am S 15.5 19.4----29.99- 46.4 46.4 40.3---
2024-04-20 01:30 am S 17.5 21.4----29.99- 46.6 46.4 40.1---
2024-04-20 01:20 am S 17.5 21.4 3.6 54.1 S29.99- 46.6 46.6 39.9---
2024-04-20 01:10 am S 17.5 21.4 3.6-4.1 S30.00- 46.4 46.6 39.9---
2024-04-20 01:00 am S 15.5 19.4----30.00-0.05 46.4 46.6 40.3---
2024-04-20 12:50 am S 15.5 21.4 3.9 54.2 S30.00- 46.6 46.6 40.1---
2024-04-20 12:40 am S 17.5 19.4----30.01- 46.6 46.6 39.7---
2024-04-20 12:30 am S 17.5 21.4----30.01- 46.8 46.8 39.6---
2024-04-20 12:20 am S 17.5 21.4 4.3 54.1SSW30.01- 46.8 46.8 39.6---
2024-04-20 12:10 am S 17.5 21.4 4.3-4.1SSW30.01- 46.8 46.8 39.6---
2024-04-20 12:00 am S 17.5 21.4----30.01-0.04 46.8 46.9 39.6---
2024-04-19 11:50 pm S 17.5 21.4 4.3 54.2SSW30.01- 46.8 46.9 39.6---
2024-04-19 11:40 pm S 19.4 23.3----30.01- 46.8 46.6 39.2---
2024-04-19 11:30 pm S 19.4 23.3----30.01- 46.8 46.6 39.0---
2024-04-19 11:20 pm S 19.4 25.3 4.3 54.2 S30.01- 46.9 46.4 39.0---
2024-04-19 11:10 pm S 19.4 25.3 4.3-4.2 S30.02- 47.1 46.4 38.5---
2024-04-19 11:00 pm S 21.4 23.3----30.01-0.04 47.1 46.6 38.1---
2024-04-19 10:50 pm S 19.4 25.3 4.3 54.0 S30.01- 46.9 46.6 38.3---
2024-04-19 10:40 pm S 19.4 25.3----30.02- 46.8 46.6 38.7---
2024-04-19 10:30 pm S 19.4 23.3----30.03- 46.8 46.6 39.0---
2024-04-19 10:20 pm S 17.5 23.3 3.9 54.1SSW30.03- 46.8 46.6 39.2---
2024-04-19 10:10 pm S 17.5 21.4 3.9-4.1SSW30.04- 46.8 46.6 39.2---
2024-04-19 10:00 pm S 17.5 21.4----30.05-0.01 46.8 46.6 39.0---
2024-04-19 09:50 pm S 17.5 21.4 3.9 43.9 S30.05- 46.8 46.4 38.7---
2024-04-19 09:40 pm S 17.5 21.4----30.05- 46.6 46.6 38.5---
2024-04-19 09:30 pm S 17.5 23.3----30.05- 46.6 46.6 37.9---
2024-04-19 09:20 pm S 19.4 23.3 3.6 44.0 S30.05- 46.8 46.4 37.6---
2024-04-19 09:10 pm S 17.5 21.4 3.6-4.0 S30.06- 46.6 46.4 37.0---
2024-04-19 09:00 pm S 17.5 21.4----30.05+0.00 46.6 46.4 37.2---
2024-04-19 08:50 pm S 17.5 21.4 3.3 43.8 S30.05- 46.6 46.2 37.6---
2024-04-19 08:40 pm S 17.5 21.4----30.05- 46.6 46.2 37.2---
2024-04-19 08:30 pm S 17.5 23.3----30.04- 46.6 46.2 37.4---
2024-04-19 08:20 pm S 17.5 21.4 3.3 44.0 S30.04- 46.6 46.2 37.2---
2024-04-19 08:10 pm S 17.5 21.4 3.3-4.0 S30.04- 46.6 46.2 37.0---
2024-04-19 08:00 pm S 15.5 19.4----30.05-0.04 46.4 46.2 37.4---
2024-04-19 07:50 pm S 15.5 19.4 3.3 43.9 S30.05- 46.6 46.2 37.2---
2024-04-19 07:40 pm S 15.5 19.4----30.05- 46.4 46.2 37.0---
2024-04-19 07:10 pm S 15.5 19.4 3.0-3.9 S30.06- 46.6 46.6 36.7---
2024-04-19 07:00 pm S 13.6 17.5----30.06-0.06 46.6 46.8 37.0---
2024-04-19 06:50 pm S 13.6 17.5 3.0 73.9SSE30.05- 46.6 46.8 37.4---
2024-04-19 06:40 pm S 13.6 17.5----30.05- 46.4 46.9 37.2---
2024-04-19 06:30 pm S 13.6 17.5----30.06- 46.4 46.9 37.2---
2024-04-19 06:20 pm S 13.6 17.5 3.0 33.8 S30.06- 46.4 46.9 37.6---
2024-04-19 06:10 pmSSE 15.5 17.5----30.06- 46.2 46.9 37.4---
2024-04-19 06:00 pmSSE 13.6 17.5----30.06-0.08 46.0 47.1 37.6---
2024-04-19 05:50 pmSSE 15.5 19.4 2.6 73.9SSE30.06- 46.0 46.9 37.6---
2024-04-19 05:40 pmSSE 15.5 19.4----30.07- 46.0 46.8 37.6---
2024-04-19 05:30 pmSSE 15.5 17.5----30.07- 46.0 46.8 37.6---
2024-04-19 05:20 pmSSE 15.5 17.5 2.3 93.9 E30.08- 46.0 46.9 37.4---
2024-04-19 05:10 pmSSE 13.6 17.5 2.3-3.9 E30.08- 45.9 46.9 37.4---
2024-04-19 05:00 pmSSE 13.6 15.5----30.09-0.08 45.9 46.9 37.2---
2024-04-19 04:50 pm S 13.6 15.5 2.3 114.0 E30.09- 45.9 46.9 37.0---
2024-04-19 04:40 pm S 13.6 15.5----30.11- 45.9 47.1 37.2---
2024-04-19 04:30 pm S 13.6 15.5----30.11- 45.9 47.3 37.2---
2024-04-19 04:20 pm S 13.6 15.5 2.3 114.0 E30.11- 45.9 46.9 37.6---
2024-04-19 04:10 pm S 13.6 15.5 2.3-4.0 E30.11- 45.9 46.9 37.4---
2024-04-19 04:00 pm S 13.6 15.5----30.12-0.04 45.7 46.9 37.0---
2024-04-19 03:50 pmSSE 13.6 17.5 2.3 93.9 E30.12- 45.7 46.9 36.7---
2024-04-19 03:40 pmSSE 13.6 15.5----30.11- 45.7 46.9 37.0---
2024-04-19 03:30 pmSSE 11.7 15.5----30.11- 45.7 46.9 37.0---
2024-04-19 03:20 pmSSE 11.7 15.5 2.0 113.9ESE30.12- 45.7 46.8 36.9---
2024-04-19 03:10 pmSSE 13.6 15.5----30.12- 45.7 46.9 37.4---
2024-04-19 03:00 pm S 11.7 13.6----30.14-0.05 45.7 46.8 37.6---
2024-04-19 02:50 pm S 11.7 13.6 2.3 104.2ENE30.14- 45.7 46.9 37.2---
2024-04-19 02:40 pm S 11.7 13.6----30.14- 45.7 46.9 37.4---
2024-04-19 02:30 pm S 11.7 13.6----30.15- 45.5 46.9 37.8---
2024-04-19 02:20 pm S 11.7 13.6 2.3 114.2 E30.15- 45.5 46.9 38.1---
2024-04-19 02:10 pm S 11.7 13.6 2.3-4.2 E30.16- 45.5 46.9 38.1---
2024-04-19 02:00 pm S 11.7 13.6----30.16-0.03 45.5 46.9 37.8---
2024-04-19 01:50 pm S 11.7 13.6 2.0 104.1 E30.16- 45.3 46.9 37.8---
2024-04-19 01:40 pm S 11.7 13.6----30.16- 45.3 46.9 37.8---
2024-04-19 01:30 pmSSE 11.7 13.6----30.16- 45.3 46.6 37.8---
2024-04-19 01:20 pmSSE 11.7 13.6 2.0 104.3ESE30.16- 45.3 46.6 37.2---
2024-04-19 01:10 pmSSE 11.7 15.5 2.0-4.3ESE30.16- 45.3 46.2 37.6---
2024-04-19 01:00 pm SE 11.7 13.6----30.16-0.04 45.3 46.8 37.9---
2024-04-19 12:50 pm SE 11.7 13.6 2.0 114.6ESE30.16- 45.5 46.6 38.3---

Detailed Wave Summary
for 44007 as of (1:10 pm EDT)
1710 GMT on 04/20/2024:

These wave data are displayed in rounded times.

     

Click on the graph icon in the table below to see a time series plot of the last five days of that observation.

5-day plot - Significant Wave Height Significant Wave Height (WVHT): 3.0 ft
5-day plot - Swell Height Swell Height (SwH): 1.3 ft
5-day plot - Swell Period Swell Period (SwP): 9.1 sec
5-day plot - Swell Direction Swell Direction (SwD): SE
5-day plot - Wind Wave Height Wind Wave Height (WWH): 2.6 ft
5-day plot - Wind Wave Period Wind Wave Period (WWP): 5.3 sec
5-day plot - Wind Wave Direction Wind Wave Direction (WWD): SE
5-day plot - Wave Steepness Wave Steepness (STEEPNESS): STEEP
5-day plot - Average Wave Period Average Wave Period (APD): 4.3 sec
Previous observations
TIME
(EDT)
5-day plot - Wave Height
WVHT
ft
5-day plot - Swell Height
SwH
ft
5-day plot - Swell Period
SwP
sec
5-day plot - Swell Direction
SwD
 
5-day plot - Wind Wave Height
WWH
ft
5-day plot - Wind Wave Period
WWP
sec
5-day plot - Wind Wave Direction
WWD
 
5-day plot - Wave Steepness
STEEPNESS
 
5-day plot - Average Wave Period
APD
sec
2024-04-20 12:40 pm 3.0 1.6 10.0 SE 2.6 5.0 SSEVERY_STEEP 4.3
2024-04-20 12:10 pm 3.0 1.3 9.1SSE 3.0 5.3 SSE STEEP 4.5
2024-04-20 11:40 am 3.0 2.0 5.3SSE 2.3 4.8 SSEVERY_STEEP 4.3
2024-04-20 11:10 am 3.0 1.6 5.9 SE 2.6 5.0 SVERY_STEEP 4.3
2024-04-20 10:40 am 3.0 1.3 9.1 SE 3.0 4.8 SSEVERY_STEEP 4.3
2024-04-20 10:10 am 3.3 1.3 9.1ESE 3.0 4.8 SSEVERY_STEEP 4.2
2024-04-20 09:40 am 3.3 1.0 7.1 SE 3.0 4.8 SVERY_STEEP 4.2
2024-04-20 09:10 am 3.3 1.3 7.1 SE 3.0 4.3 SVERY_STEEP 4.2
2024-04-20 08:40 am 3.3 1.6 6.2 SE 2.6 5.0 SVERY_STEEP 4.2
2024-04-20 08:10 am 3.0 1.3 8.3 SE 2.6 4.8 SVERY_STEEP 4.2
2024-04-20 07:40 am 3.3 1.6 6.2 SE 2.6 4.5 SVERY_STEEP 4.2
2024-04-20 07:10 am 3.3 1.6 6.7 SE 3.0 5.0 SSEVERY_STEEP 4.2
2024-04-20 06:40 am 3.6 1.3 8.3 SE 3.3 4.5 SVERY_STEEP 4.2
2024-04-20 06:10 am 3.6 1.6 7.7 SE 3.3 4.5 SVERY_STEEP 4.1
2024-04-20 05:40 am 3.3 1.3 7.1 SE 3.0 4.8 SVERY_STEEP 4.0
2024-04-20 05:10 am 3.3 1.3 8.3 SE 3.3 4.8 SVERY_STEEP 4.1
2024-04-20 04:40 am 3.6 1.3 8.3 SE 3.3 4.5 SVERY_STEEP 4.1
2024-04-20 04:10 am 3.3 1.6 7.1 SE 3.0 4.5 SVERY_STEEP 4.2
2024-04-20 03:40 am 3.6 1.6 8.3 SE 3.3 4.3 SSWVERY_STEEP 4.1
2024-04-20 03:10 am 3.6 1.3 7.1 SE 3.3 4.3 SVERY_STEEP 4.1
2024-04-20 02:40 am 3.6 1.3 7.7 SE 3.3 5.0 SVERY_STEEP 4.2
2024-04-20 02:10 am 3.6 1.3 10.0ESE 3.3 4.8 SSWVERY_STEEP 4.2
2024-04-20 01:40 am 3.6 1.6 10.0ESE 3.3 5.0 SVERY_STEEP 4.2
2024-04-20 01:10 am 3.6 1.0 9.1 SE 3.6 5.0 SVERY_STEEP 4.1
2024-04-20 12:40 am 3.9 1.3 10.0 E 3.6 5.3 SVERY_STEEP 4.2
2024-04-20 12:10 am 4.3 1.3 10.0ESE 3.9 4.8 SSWVERY_STEEP 4.1
2024-04-19 11:40 pm 4.3 1.3 10.8 SE 4.3 5.0 SSWVERY_STEEP 4.2
2024-04-19 11:10 pm 4.3 1.3 9.1 SE 3.9 4.5 SVERY_STEEP 4.2
2024-04-19 10:40 pm 4.3 1.3 7.7 SE 3.9 4.5 SVERY_STEEP 4.0
2024-04-19 10:10 pm 3.9 1.0 10.8 E 3.9 4.8 SSWVERY_STEEP 4.1
2024-04-19 09:40 pm 3.9 1.3 6.7SSE 3.6 4.3 SVERY_STEEP 3.9
2024-04-19 09:10 pm 3.6 1.3 8.3 SE 3.3 4.3 SVERY_STEEP 4.0
2024-04-19 08:40 pm 3.3 1.3 7.1 SE 3.0 4.0 SVERY_STEEP 3.8
2024-04-19 08:10 pm 3.3 1.6 11.4ESE 3.0 4.0 SVERY_STEEP 4.0
2024-04-19 07:40 pm 3.3 1.6 7.1SSE 2.6 3.7 SVERY_STEEP 3.9
2024-04-19 07:10 pm 3.0 1.6 7.1SSE 2.3 3.6 SVERY_STEEP 3.9
2024-04-19 06:40 pm 3.0 1.6 7.1SSE 2.3 3.4 SSE AVERAGE 3.9
2024-04-19 06:10 pm 3.0 1.6 7.7 SE 2.3 3.4 SVERY_STEEP 3.8
2024-04-19 05:40 pm 2.6 1.6 7.1SSE 2.0 3.3 S N/A 3.9
2024-04-19 05:10 pm 2.3 1.6 9.1 E 1.6 3.4 SSE N/A 3.9
2024-04-19 04:40 pm 2.3 1.6 11.4 E 1.6 3.3 SSE N/A 4.0
2024-04-19 04:10 pm 2.3 1.6 10.8 E 1.6 2.9 S N/A 4.0
2024-04-19 03:40 pm 2.3 1.6 9.1 E 1.6 3.1 SSE N/A 3.9
2024-04-19 03:10 pm 2.0 1.3 10.8ESE 1.6 3.0 S N/A 3.9
2024-04-19 02:40 pm 2.3 1.6 10.0ENE 1.6 2.9 SSE N/A 4.2
2024-04-19 02:10 pm 2.3 1.6 10.8 E 1.6 2.9 SSE N/A 4.2
2024-04-19 01:40 pm 2.0 1.3 10.0 E 1.6 5.0 SSE N/A 4.1
2024-04-19 01:10 pm 2.0 1.6 10.0ESE 1.3 4.8 SSE N/A 4.3

Plot of wave energy versus frequency (and period)